Regional Weather Roundup
Issued by NWS

Home | Current Version | Previous Version | Graphics & Text | Print | Product List | Glossary On
Versions: 1 2 3 4 5 6 7 8 9 10 11 12 13 14 15 16 17 18 19 20 21 22 23 24 25 26 27 28 29 30 31 32 33 34 35 36 37 38 39 40 41 42 43 44 45 46 47 48 49 50
000
ASUS43 KIND 261209
RWRIN

WEATHER ROUNDUP FOR INDIANA
NATIONAL WEATHER SERVICE INDIANAPOLIS IN
700 AM EST THU FEB 26 2015

NOTE: "FAIR" INDICATES FEW OR NO CLOUDS BELOW 12,000 FEET WITH NO
SIGNIFICANT WEATHER AND/OR OBSTRUCTIONS TO VISIBILITY.

* - STATION DOES NOT REPORT WEATHER SUCH AS PRECIPITATION OR FOG.

+ - STATION NOT QUALITY CONTROLLED BY THE NATIONAL WEATHER SERVICE.
    USE DATA WITH CAUTION...ESPECIALLY DEWPOINT AND RELATIVE
    HUMIDITY OBSERVATIONS.

INZ001>003-010>013-019-020-261300-
NORTHWEST INDIANA

CITY           SKY/WX    TMP DP  RH WIND       PRES   REMARKS
GARY /AIRPORT/ LGT SNOW  19  10  68 NE12G23   30.10R WCI   7
KNOX *+          N/A     16   5  62 NE8       30.07R WCI   5
LA PORTE +     LGT SNOW  16  12  84 N10       30.08R WCI   4
6HR MIN TEMP:  16; 6HR MAX TEMP:  19;

MICHIGAN CITY+ LGT SNOW  14   9  79 NE6       30.10R WCI   5
MONTICELLO +   LGT SNOW  16  13  88 NE7       30.04R WCI   6
6HR MIN TEMP:  16; 6HR MAX TEMP:  19;

RENSSELAER +   LGT SNOW  18  18 100 N9        30.07R WCI   6
VALPARAISO     LGT SNOW  14  10  84 N6        30.08R FOG     WCI   5
6HR MIN TEMP:  14; 6HR MAX TEMP:  17; 6HR PCP:  0.01;


$$

LMZ046-743>745-261300-
SOUTHERN LAKE MICHIGAN

STATION/POSITION TIME  TEMP WIND        PRES
                       AIR  DIR/SP/G
                 (UTC) (F)  (DEG/KT/KT) (MB)
MICHIGAN CITY    1200   15   20/ 15/ 18   N/A

$$

INZ004-005-014>016-021>024-261300-
NORTH CENTRAL INDIANA

CITY           SKY/WX    TMP DP  RH WIND       PRES   REMARKS
ELKHART        CLOUDY    14   7  73 NE8       30.07  WCI   3
GOSHEN         LGT SNOW  14   8  77 NE8       30.05R WCI   3
6HR MIN TEMP:  14; 6HR MAX TEMP:  16; 6HR PCP: TRACE;

LOGANSPORT +   LGT SNOW  18  14  86 NE5       30.05R WCI  11
PERU/GRISSOM   FLURRIES  16  10  79 NE13      30.02R WCI   2
6HR MIN TEMP:  15; 6HR MAX TEMP:  19; 6HR PCP: TRACE;

ROCHESTER +    LGT SNOW  18  14  86 NE3       30.05R
SOUTH BEND     LGT SNOW  15   9  76 NE8       30.08R WCI   4
6HR MIN TEMP:  15; 6HR MAX TEMP:  17; 6HR PCP:  0.05;

WARSAW +       LGT SNOW  14  10  85 NE8       30.05R WCI   3

$$

INZ006>009-017-018-025>027-261300-
NORTHEAST INDIANA

CITY           SKY/WX    TMP DP  RH WIND       PRES   REMARKS
ANGOLA *+      CLOUDY    10   7  85 E7        30.04R WCI   0
FORT WAYNE     LGT SNOW  12   7  80 NE13      30.05R WCI  -3
6HR MIN TEMP:  12; 6HR MAX TEMP:  18; 6HR PCP:  0.02;

HUNTINGTON +   LGT SNOW  12   6  77 NE5       30.04R WCI   4
6HR MIN TEMP:  12; 6HR MAX TEMP:  18;


$$

INZ028-029-035-036-043>045-051>053-261300-
WEST CENTRAL INDIANA

CITY           SKY/WX    TMP DP  RH WIND       PRES   REMARKS
CRAWFORDSVL +  FLURRIES  17  10  77 N9        30.01R WCI   5
6HR MIN TEMP:  16; 6HR MAX TEMP:  21;

GREENCASTLE +  LGT SNOW  19  12  73 NE8       29.99R WCI   9
LAFAYETTE      LGT SNOW  17  13  84 N12       30.05R FOG     WCI   4
6HR MIN TEMP:  17; 6HR MAX TEMP:  21; 6HR PCP: TRACE;

TERRE HAUTE    LGT SNOW  21  16  81 NE9       30.01R WCI  11
6HR MIN TEMP:  21; 6HR MAX TEMP:  28; 6HR PCP: TRACE;


$$

INZ030>032-037>040-046>048-054>057-064-065-261300-
CENTRAL INDIANA

CITY           SKY/WX    TMP DP  RH WIND       PRES   REMARKS
CP ATTERBURY + LGT SNOW  21  16  79 N8        29.99R WCI  12
COLUMBUS       PTCLDY    19  12  73 N12       29.98  WCI   7
FRANKFORT +    LGT SNOW  18  14  87 N10       30.03R WCI   6
6HR MIN TEMP:  18; 6HR MAX TEMP:  21;

GREENWOOD *+   CLOUDY    18  10  73 N12       29.99  WCI   5
INDIANAPOLIS   LGT SNOW  18  13  80 NE14      29.99R WCI   4
6HR MIN TEMP:  18; 6HR MAX TEMP:  23; 6HR PCP:  0.01;

-EAGLE CREEK   LGT SNOW  17  12  80 NE9       29.99R WCI   6
6HR MIN TEMP:  17; 6HR MAX TEMP:  21; 6HR PCP: TRACE;

KOKOMO *+      MOCLDY    16  10  79 NE9       30.03R WCI   4
6HR MIN TEMP:  16; 6HR MAX TEMP:  19;

MARION +       CLOUDY    14   9  81 NE10      30.03R HAZE    WCI   1
MT COMFORT *+  CLOUDY    18   7  62 N13       29.99R WCI   4
SHELBYVILLE    LGT SNOW  19  12  74 NE12      29.97R WCI   7
6HR MIN TEMP:  20; 6HR MAX TEMP:  25; 6HR PCP: TRACE;

ZIONSVILLE +   FLURRIES  17  11  78 NE12      30.01R WCI   4
6HR MIN TEMP:  17; 6HR MAX TEMP:  21;


$$

INZ033-034-041-042-049-050-058-059-261300-
EAST CENTRAL INDIANA

CITY           SKY/WX    TMP DP  RH WIND       PRES   REMARKS
MUNCIE         LGT SNOW  14   7  73 NE15      30.00R WCI  -1
6HR MIN TEMP:  14; 6HR MAX TEMP:  19; 6HR PCP: TRACE;


$$

INZ060-061-067>069-081>083-085>088-261300-
SOUTHWEST INDIANA

CITY           SKY/WX    TMP DP  RH WIND       PRES   REMARKS
EVANSVILLE     CLOUDY    28  17  63 N7        29.98R WCI  21
6HR MIN TEMP:  27; 6HR MAX TEMP:  30;

HUNTINGBURG *+ PTCLDY    23  16  74 N8        29.96R WCI  14
6HR MIN TEMP:  23; 6HR MAX TEMP:  27;

WASHINGTON +   MOCLDY    24  13  64 N8        29.98R WCI  14
6HR MIN TEMP:  22; 6HR MAX TEMP:  27;


$$

INZ062-063-066-070>080-084-089>092-261300-
SOUTH CENTRAL AND SOUTHEAST INDIANA

CITY           SKY/WX    TMP DP  RH WIND       PRES   REMARKS
BLOOMINGTON    LGT SNOW  21  17  84 NE7       29.96R FOG     WCI  12
6HR MIN TEMP:  21; 6HR MAX TEMP:  26; 6HR PCP: TRACE;

NORTH VERNON + CLOUDY    21  14  73 N7        29.95R WCI  13
SEYMOUR +      CLOUDY    23  14  68 N10       29.96R WCI  12

$$



USA.gov is the U.S. government's official web portal to all federal, state and local government web resources and services.